sat.trackr.live / text

‹ back to catalog

STARLINK-4120

NORAD 53537 · 2022-101L

PAYLOAD ACTIVE UNKNOWN

§ Identity

Operator
Country
US
Launch date
2022-08-19
Launch site
AFETR
Launch vehicle
Mass (kg)
RCS (m²)

Purposes: comms

External: N2YO · Heavens-Above · Gunter

§ Orbital elements

Epoch: 2026-09-20T01:15:51.221952Z

Period
93.85 min
Inclination
53.1604°
Eccentricity
0.0001215
Mean motion
15.34397103 rev/d
Perigee alt
461.9 km
Apogee alt
463.5 km
Semi-major
6,840.8 km
B*
8.7630e-5
RAAN
271.5261°
Arg perigee
75.7813°
Mean anomaly
284.3325°
Rev number
22,564

§ Raw data

STARLINK-41201 53537U 22101L   26263.05267618  .00002585  00000+0  87630-4 0  99902 53537  53.1604 271.5261 0001215  75.7813 284.3325 15.34397103225640

JSON: /api/v1/satellites/53537 · /tle

For live sub-satellite position, see the globe view (requires WebGL).

§ Visibility from observer

Set your observer location to see the next 7 days of passes ≥ 10°. The values pass through the URL so the page stays shareable.

No JS? Fill the form by hand. The geolocation button needs JavaScript.